Погода в Камбулате

Россия / Ставропольский край     45°22′02″N   43°03′11″E
темп.,
°C
ветер,
м/с
пор.,
м/с
влажн.,
%
обл.,
%
осадки,
мм/ч
давл.,
гПа
погр.,
м
7 марта, вс
вс700:00+1сз101495100 0.3 1016693
03:00−2сз91394100 1.8 1021808
06:00−3сз7117894 0.4 1025770
09:00−2зсз585946 0.4 1026819
12:000сз56440 0.0 10251157
15:00+1зсз44410 0.0 10231273
18:00−1з23600 0.0 102256
21:00−2зюз23650 0.0 102265
8 марта, пн
пн800:00−2зюз37658 0.0 1022238
03:00−2зюз38594 0.0 1021278
06:00−3юз48630 0.0 1021203
09:00+1з57430 0.0 1020767
12:00+4зюз564232 0.0 10181053
15:00+4зюз554617 0.0 10161095
18:00+1зюз366316 0.0 101691
21:00−1юз47728 0.0 1018141
9 марта, вт
вт900:000зюз51073100 0.0 1017326
03:00−1зюз4108080 0.0 1016306
06:00−1юз4117689 0.0 1016474
09:00+2з9147291 0.0 10171166
12:00+4з9146599 0.1 10171526
15:00+1зсз5782100 0.8 1017708
18:000зсз489196 0.1 1018296
21:00−1з379177 0.1 1020264
10 марта, ср
ср1000:00−1зсз487996 0.0 1021403
03:00−2з377893 0.0 1022245
06:00−3з257453 0.0 1022262
09:000зюз345576 0.0 1023627
12:00+2зсз4546100 0.0 10221491
15:00+2ссз4451100 0.0 10211340
18:00−1ссв3568100 0.0 1021182
21:00−2всв4663100 0.0 1022362
11 марта, чт
чт1100:00−3всв6969100 0.0 1021604
03:00−5всв71085100 0.4 1022515
06:00−5всв71073100 0.5 1023557
09:00−4всв7957100 0.6 1025692
12:00−3в7845100 0.0 10261011
15:00−2всв7835100 0.0 10261067
18:00−4в6838100 0.0 10271011
21:00−5в6839100 0.0 1029856